Wind_Speed
7 8 8 8 8 9 9 10 10 11 11 12 11 11 11 11 10 10 10 10 10 10 11 11 11 11 11 11 11 10 10 10 10 11 11 11 11 12 12 11 10 10 10 10
8 8 7 8 9 9 10 10 11 11 11 12 12 11 11 11 10 10 11 10 10 9 10 11 11 12 12 12 12 11 10 10 11 11 11 11 12 12 12 12 12 11 10 10
8 8 8 8 9 9 10 11 11 11 12 12 12 11 11 11 11 10 10 10 9 9 10 10 11 11 12 12 12 11 11 11 11 10 10 11 12 13 13 13 12 12 11 11
8 8 9 9 9 9 9 10 11 11 12 12 12 11 11 11 10 10 10 10 10 10 11 11 11 11 12 12 11 12 12 12 12 11 11 12 12 13 13 13 12 12 12 11
8 8 9 9 9 9 9 9 10 11 11 11 11 12 11 11 10 10 10 10 11 12 12 12 12 12 12 12 12 13 13 13 13 12 12 12 12 13 13 12 12 12 12 12
9 9 9 10 9 9 10 10 10 11 12 12 12 12 11 10 10 10 10 10 11 12 13 12 12 12 13 13 13 13 13 14 14 14 13 13 13 13 13 13 13 13 13 13
10 10 10 10 10 10 10 11 11 11 11 11 11 11 10 11 11 11 11 11 11 12 12 12 13 13 13 13 13 13 14 14 15 15 14 14 14 14 14 13 13 13 13 13
10 11 10 10 11 11 10 11 11 11 11 11 11 11 11 11 11 10 11 11 11 11 12 13 13 13 13 14 14 14 15 15 15 15 15 14 14 14 14 13 13 13 13 13
11 11 11 11 11 11 11 11 11 12 12 13 12 12 12 11 11 10 11 11 11 11 12 13 13 13 13 14 14 15 15 16 16 15 16 15 16 16 15 14 14 13 14 15
12 11 11 11 11 11 11 11 11 12 12 13 14 13 12 11 11 11 11 12 12 13 13 13 13 13 13 14 15 15 16 16 16 16 16 16 16 16 16 16 16 15 15 15
12 12 11 12 13 12 12 12 13 14 14 14 15 14 13 13 13 13 13 13 14 14 14 14 14 14 14 14 15 15 16 16 16 17 17 17 17 16 17 17 18 17 17 16
14 13 13 13 13 13 13 13 13 14 14 14 15 15 14 13 14 15 15 15 15 15 15 15 16 16 15 15 15 15 16 16 16 17 17 17 18 18 18 19 19 18 18 18
14 13 13 13 13 13 13 13 14 13 13 14 15 15 14 15 16 16 17 17 16 16 16 17 17 17 17 16 16 16 16 16 17 18 18 19 19 19 19 20 20 20 19 19
15 15 14 14 13 13 13 14 15 15 15 15 16 16 16 16 17 17 17 17 17 17 18 17 17 18 18 18 17 17 17 18 18 19 19 20 20 20 20 20 20 20 20 21
15 16 16 15 15 15 16 15 15 16 16 17 16 16 17 17 17 17 18 18 18 18 18 17 17 18 18 19 19 19 19 20 20 20 20 20 20 20 20 20 20 20 21 22
16 16 16 17 17 17 18 17 17 17 17 17 17 17 18 18 18 18 18 19 19 19 19 18 18 19 18 19 19 19 20 20 20 20 20 21 21 21 21 21 22 22 22 23
17 17 17 17 18 19 19 17 18 18 18 18 18 18 18 19 19 19 19 20 20 19 19 19 19 20 20 19 19 20 21 21 21 21 22 22 23 22 22 22 22 23 23 24
18 18 18 18 18 19 18 18 19 19 19 19 19 19 19 19 19 20 20 20 20 20 21 21 21 21 21 21 21 21 21 21 22 22 23 24 24 23 23 24 23 24 24 25
18 18 18 18 18 18 17 17 18 19 19 19 19 19 19 19 20 20 21 21 21 22 22 22 22 22 22 22 22 22 21 22 22 23 23 24 24 24 24 24 24 24 24 25
19 19 19 19 19 19 17 17 18 19 20 19 19 20 20 20 20 20 21 22 22 22 22 23 23 23 23 23 23 23 23 23 23 23 23 24 24 24 25 25 25 25 25 25
20 20 20 20 21 20 20 19 19 20 20 20 20 21 21 21 21 21 22 22 23 23 23 24 23 24 24 25 24 24 24 25 25 25 24 25 25 25 26 26 26 26 26 26
21 22 22 22 22 21 21 21 21 21 21 22 22 22 22 23 23 23 23 23 23 23 24 24 25 25 25 25 25 25 26 26 26 27 27 27 27 27 27 27 27 27 27 27
23 23 23 22 22 22 22 22 22 23 23 23 23 23 24 24 24 24 24 24 23 23 24 25 25 25 25 26 26 26 27 27 27 27 28 29 29 29 29 28 28 28 28 28
23 23 23 23 22 23 23 23 23 23 23 23 23 24 24 25 25 25 25 24 24 25 25 25 25 25 25 26 26 26 27 27 27 27 28 28 29 29 29 29 29 29 29 28
23 24 24 24 23 24 24 24 24 23 24 24 24 24 25 25 25 25 25 26 26 26 26 26 25 25 25 25 26 27 27 27 27 27 28 28 28 29 28 29 29 29 29 29
23 23 24 24 24 25 24 24 24 24 24 24 24 24 25 26 26 26 26 26 26 26 25 26 26 26 26 26 27 28 28 28 28 28 28 29 29 29 29 30 30 29 29 29
Wind_Direction
279 275 272 272 273 274 272 274 279 281 277 277 280 281 283 285 285 287 283 281 281 278 275 277 278 277 278 281 278 279 282 285 287 287 287 285 282 280 278 281 279 276 276 271
280 276 278 275 277 274 272 278 281 281 278 277 280 280 285 286 284 284 279 284 283 279 275 275 277 278 278 279 277 277 279 282 283 283 283 282 282 280 279 278 273 270 272 270
284 278 277 279 275 280 278 280 280 279 279 277 276 279 284 284 284 286 288 287 285 282 279 275 277 283 281 280 279 275 274 278 280 283 284 281 281 280 280 276 272 268 268 264
284 278 276 279 281 283 285 284 282 279 277 277 280 280 281 283 283 287 290 287 284 284 284 282 281 283 281 282 283 280 278 278 279 283 286 279 279 280 279 277 273 268 264 262
286 282 278 277 282 284 288 285 285 281 276 279 280 279 280 281 282 283 285 285 284 286 286 286 288 285 285 287 286 283 283 283 280 279 282 281 280 281 279 277 273 270 264 262
288 285 282 280 281 285 288 287 287 286 283 282 282 280 284 287 285 280 279 283 285 288 291 289 291 287 284 285 285 285 283 281 279 277 278 277 277 279 279 277 274 271 268 265
289 286 284 285 286 288 289 289 288 289 283 282 281 280 285 287 288 286 284 284 284 287 288 290 289 287 285 284 284 285 285 281 278 275 274 275 273 277 277 274 273 271 269 265
289 287 285 283 284 284 287 288 291 292 289 287 286 285 288 286 289 288 289 287 283 282 283 285 285 284 283 281 282 283 285 284 281 274 271 272 270 271 273 269 267 267 268 267
286 285 284 280 281 280 282 283 283 284 285 283 285 288 288 283 285 288 291 289 285 281 282 284 284 283 281 279 279 279 281 281 282 277 274 272 272 270 267 266 265 266 266 266
284 281 280 278 277 276 277 277 279 281 280 280 284 288 290 286 287 290 288 285 283 282 282 283 283 283 283 282 279 278 278 279 279 279 275 271 270 269 269 268 268 268 266 264
281 280 277 275 275 280 278 276 277 278 277 278 281 285 288 287 288 287 287 286 283 282 283 283 282 284 283 283 282 279 278 278 277 278 276 272 268 266 268 268 267 266 264 262
279 278 275 276 277 277 278 279 280 281 281 283 284 285 287 287 286 288 288 285 285 285 283 283 285 286 284 285 283 280 279 278 277 276 277 274 271 269 269 269 267 264 262 261
277 278 278 277 276 277 280 283 284 282 279 281 283 285 287 285 284 285 286 285 285 285 284 283 285 286 285 286 286 283 279 278 277 276 277 277 277 274 271 269 266 265 261 261
278 277 279 278 280 280 277 279 281 282 282 283 283 284 283 283 282 285 286 286 287 287 286 284 285 285 284 284 285 284 280 277 276 275 276 277 277 276 272 269 268 267 264 263
279 278 279 276 277 279 279 277 277 279 282 284 285 284 285 283 283 286 287 288 287 286 287 287 286 284 283 283 283 282 280 277 275 275 276 278 278 278 275 271 270 269 268 266
278 277 277 276 276 276 278 280 279 279 281 282 284 286 287 286 286 287 287 287 286 287 287 288 287 285 284 282 282 281 278 276 275 275 275 277 277 277 275 274 271 271 271 269
274 274 273 275 275 275 278 282 282 281 282 285 286 286 286 286 287 286 285 285 286 285 286 288 289 288 286 284 283 282 281 277 275 276 276 277 276 276 275 274 273 272 272 271
272 273 274 274 273 275 282 280 280 282 285 286 287 288 287 286 286 287 287 286 286 285 285 286 287 287 286 286 286 285 283 280 278 277 277 277 277 276 276 275 275 275 274 273
272 272 273 274 275 276 279 282 282 283 283 286 287 288 288 287 285 285 286 285 283 283 283 284 285 285 285 285 285 284 283 282 281 279 278 278 278 278 277 276 275 276 276 276
272 271 271 274 276 278 281 283 283 282 282 286 287 288 288 287 286 287 286 285 284 282 282 282 283 284 284 285 285 284 283 282 281 280 279 279 280 279 278 276 275 276 277 276
270 270 271 274 277 279 281 283 283 282 285 285 286 287 289 288 288 288 287 287 286 285 284 283 282 282 283 283 284 283 283 283 281 279 279 279 280 280 279 277 277 277 277 277
270 271 272 274 276 279 281 281 282 283 283 284 285 287 288 288 288 287 286 286 286 286 286 285 285 283 282 282 282 283 283 283 281 279 279 279 278 278 278 277 277 278 277 276
270 272 273 275 277 279 281 281 282 282 283 284 285 286 287 288 288 288 286 284 285 286 286 287 287 285 282 281 282 282 282 281 281 280 279 278 278 278 278 277 277 277 277 276
271 273 274 276 277 279 280 281 282 283 283 284 284 286 287 287 286 287 285 284 283 284 286 286 286 285 285 284 284 283 284 282 281 281 281 279 278 278 278 277 277 277 276 276
271 271 272 274 277 278 280 282 283 283 283 284 285 286 287 288 286 285 285 283 281 282 284 284 284 285 285 286 285 284 284 284 283 282 281 281 280 279 278 278 278 277 277 276
271 273 273 274 276 279 280 282 283 282 282 283 285 287 289 289 288 288 286 284 283 282 282 282 282 283 284 284 285 286 284 284 283 283 281 280 280 280 279 278 278 277 277 277
Height
5850 5851 5849 5849 5848 5848 5847 5847 5847 5846 5845 5845 5844 5844 5844 5843 5843 5842 5842 5842 5841 5841 5840 5839 5839 5838 5838 5838 5838 5837 5837 5836 5835 5834 5833 5833 5832 5831 5830 5829 5829 5828 5828 5827
5849 5847 5847 5846 5845 5845 5845 5844 5844 5843 5842 5842 5841 5841 5841 5840 5840 5839 5838 5838 5838 5838 5837 5837 5836 5836 5835 5835 5834 5834 5833 5833 5832 5831 5830 5829 5829 5827 5827 5826 5825 5825 5824 5824
5846 5846 5844 5844 5843 5842 5842 5842 5841 5841 5840 5839 5839 5839 5838 5837 5837 5836 5836 5836 5835 5835 5835 5834 5834 5833 5832 5832 5831 5830 5830 5829 5828 5827 5826 5826 5825 5824 5823 5822 5822 5821 5821 5821
5843 5843 5842 5841 5840 5840 5839 5838 5838 5837 5837 5836 5836 5836 5836 5834 5834 5834 5833 5833 5832 5832 5832 5831 5830 5830 5829 5829 5828 5827 5826 5825 5825 5824 5823 5822 5822 5821 5819 5819 5818 5818 5818 5818
5841 5840 5839 5838 5838 5837 5836 5835 5835 5834 5834 5834 5833 5832 5833 5832 5831 5831 5830 5830 5829 5829 5828 5827 5827 5826 5825 5825 5824 5823 5822 5822 5821 5820 5820 5820 5819 5817 5816 5815 5815 5815 5814 5815
5839 5838 5837 5836 5835 5834 5833 5833 5832 5831 5831 5831 5830 5829 5829 5828 5828 5827 5827 5826 5826 5826 5825 5824 5823 5822 5822 5821 5820 5819 5819 5818 5818 5817 5817 5816 5815 5814 5813 5812 5812 5811 5811 5811
5836 5835 5834 5833 5832 5832 5831 5831 5830 5829 5828 5828 5826 5826 5827 5826 5825 5825 5824 5824 5823 5822 5822 5821 5820 5819 5818 5817 5816 5815 5815 5814 5814 5813 5813 5812 5812 5811 5810 5809 5808 5808 5808 5808
5833 5833 5832 5830 5830 5829 5828 5828 5828 5827 5825 5824 5823 5822 5824 5822 5822 5821 5821 5820 5820 5819 5818 5817 5817 5816 5814 5813 5812 5812 5811 5810 5809 5809 5808 5808 5807 5807 5806 5806 5805 5805 5805 5805
5830 5830 5828 5827 5826 5826 5824 5824 5824 5823 5822 5821 5820 5820 5820 5819 5818 5818 5817 5817 5816 5816 5815 5814 5813 5812 5811 5810 5809 5808 5807 5806 5805 5804 5804 5804 5803 5803 5802 5802 5801 5801 5802 5802
5826 5826 5825 5824 5823 5822 5821 5820 5820 5819 5818 5817 5817 5816 5817 5815 5815 5814 5814 5813 5812 5812 5811 5810 5809 5808 5807 5806 5805 5804 5803 5802 5801 5801 5800 5799 5799 5799 5798 5798 5798 5798 5797 5797
5822 5822 5822 5820 5819 5819 5818 5817 5816 5816 5815 5814 5813 5815 5813 5812 5811 5811 5810 5809 5808 5807 5807 5806 5805 5804 5803 5802 5801 5799 5798 5797 5797 5796 5795 5795 5795 5794 5793 5793 5793 5793 5793 5793
5818 5818 5817 5817 5816 5815 5814 5813 5813 5812 5811 5810 5809 5812 5809 5808 5807 5806 5805 5805 5804 5803 5802 5801 5800 5799 5798 5797 5796 5795 5794 5793 5792 5791 5790 5790 5790 5789 5788 5788 5787 5788 5788 5788
5814 5814 5813 5812 5813 5812 5810 5809 5809 5808 5807 5806 5805 5808 5805 5804 5802 5801 5801 5800 5799 5798 5797 5796 5795 5794 5793 5792 5791 5790 5789 5788 5787 5786 5785 5785 5784 5784 5783 5782 5782 5782 5782 5782
5809 5809 5809 5809 5807 5806 5806 5805 5804 5804 5802 5802 5801 5801 5800 5798 5797 5797 5796 5795 5794 5793 5792 5791 5790 5789 5788 5787 5786 5785 5784 5783 5782 5781 5780 5779 5778 5778 5777 5776 5776 5776 5776 5776
5805 5804 5803 5803 5802 5802 5801 5800 5800 5799 5798 5797 5797 5795 5795 5793 5792 5791 5790 5789 5788 5787 5786 5785 5785 5783 5782 5781 5780 5779 5778 5777 5776 5775 5774 5773 5772 5771 5771 5770 5770 5770 5769 5769
5799 5799 5799 5798 5797 5796 5796 5795 5795 5794 5793 5792 5791 5790 5789 5788 5787 5786 5784 5783 5782 5781 5780 5779 5778 5777 5776 5775 5774 5773 5772 5771 5770 5769 5768 5767 5766 5765 5765 5764 5764 5764 5763 5763
5794 5794 5793 5793 5792 5791 5791 5791 5789 5788 5787 5787 5785 5786 5783 5782 5781 5780 5779 5778 5776 5775 5774 5773 5772 5771 5770 5769 5768 5767 5766 5764 5764 5763 5762 5761 5760 5759 5758 5758 5757 5757 5756 5756
5788 5788 5787 5787 5787 5785 5788 5785 5783 5782 5781 5780 5779 5778 5777 5776 5775 5774 5773 5772 5770 5769 5768 5767 5766 5765 5763 5762 5761 5760 5759 5758 5757 5756 5755 5754 5753 5752 5752 5751 5750 5750 5749 5748
5783 5782 5781 5781 5780 5780 5781 5779 5778 5776 5775 5775 5773 5772 5771 5769 5768 5767 5766 5764 5763 5762 5761 5760 5759 5758 5757 5756 5754 5753 5752 5751 5750 5749 5748 5747 5746 5745 5744 5744 5743 5742 5741 5741
5776 5776 5776 5774 5773 5773 5776 5774 5772 5771 5769 5769 5767 5766 5764 5763 5762 5761 5759 5757 5756 5755 5754 5753 5752 5750 5749 5748 5747 5746 5745 5743 5742 5741 5740 5739 5738 5737 5736 5736 5735 5734 5734 5733
5770 5770 5769 5768 5767 5767 5768 5767 5766 5765 5765 5763 5761 5759 5758 5756 5756 5754 5752 5750 5749 5748 5747 5745 5744 5743 5741 5740 5739 5738 5737 5736 5735 5733 5732 5731 5730 5729 5728 5728 5727 5726 5726 5725
5764 5763 5763 5762 5761 5763 5761 5759 5759 5758 5757 5755 5753 5752 5751 5750 5748 5746 5745 5743 5742 5740 5739 5738 5736 5735 5734 5732 5731 5730 5729 5728 5726 5725 5724 5724 5722 5721 5720 5719 5718 5718 5717 5716
5757 5757 5756 5756 5757 5755 5753 5752 5751 5750 5749 5748 5746 5745 5743 5742 5740 5739 5737 5736 5735 5733 5732 5730 5729 5727 5726 5724 5723 5722 5721 5719 5718 5717 5715 5714 5713 5712 5711 5710 5710 5709 5708 5708
5750 5749 5748 5748 5748 5747 5746 5744 5744 5742 5741 5740 5738 5737 5736 5734 5732 5731 5729 5728 5727 5726 5724 5722 5721 5719 5718 5717 5715 5714 5712 5710 5709 5708 5706 5705 5704 5703 5702 5701 5700 5700 5699 5698
5743 5741 5741 5740 5740 5739 5738 5737 5736 5735 5734 5732 5731 5729 5727 5726 5724 5723 5721 5720 5719 5717 5716 5714 5713 5711 5710 5709 5707 5705 5704 5702 5700 5699 5697 5696 5695 5694 5693 5692 5691 5690 5690 5689
5735 5734 5733 5733 5733 5731 5731 5730 5729 5727 5726 5725 5723 5721 5719 5718 5716 5714 5713 5711 5710 5708 5707 5706 5704 5703 5702 5701 5699 5697 5695 5693 5692 5690 5688 5687 5686 5684 5683 5682 5681 5680 5680 5679